Weather History for KLOR - October, 2013

Change the Weather History Date:

Monday, October 7, 2013

  Actual Average (KDHN) Record (KDHN)
Temperature  
Mean Temperature 72 °F 70 °F  
Max Temperature 80 °F 82 °F 92 °F (1951)
Min Temperature 63 °F 58 °F 44 °F (1964)
Degree Days  
Heating Degree Days 0 1  
Month to date heating degree days 2  
Since 1 July heating degree days 4  
Cooling Degree Days 6 6  
Month to date cooling degree days 47  
Year to date cooling degree days 2275  
Growing Degree Days 22 (Base 50)    
Moisture  
Dew Point 64 °F    
Average Humidity 83    
Maximum Humidity 100    
Minimum Humidity 56    
Precipitation  
Precipitation 0.21 in 0.11 in 1.96 in (1931)
Month to date precipitation 0.76  
Year to date precipitation 42.74  
Sea Level Pressure  
Sea Level Pressure 29.85 in    
Wind  
Wind Speed 4 mph (North)    
Max Wind Speed 14 mph    
Max Gust Speed 16 mph    
Visibility 8 miles    
Events Rain , Thunderstorm    
T = Trace of Precipitation, MM = Missing Value Source: NWS Daily Summary

Daily Weather History Graph

Daily Weather History Graph

Search for Another Location

Airport or City:

Trip Planner

Search our weather history database for the weather conditions in past years. The results will help you decide how hot, cold, wet, or windy it might be!

Date:

Astronomy

Oct. 07, 2013 Rise Set
Actual Time 6:40 AM CDT 6:20 PM CDT
Civil Twilight 6:16 AM CDT 6:44 PM CDT
Nautical Twilight 5:48 AM CDT 7:12 PM CDT
Astronomical Twilight 5:20 AM CDT 7:40 PM CDT
Moon 9:18 AM CDT (10/7) 8:17 PM CDT (10/7)
Length of Visible Light 12h 28m
Length of Day
11h 39m
Waxing Crescent, 9% of the Moon is Illuminated
Oct 7
Waxing Crescent
Oct 11
First Quarter
Oct 18
Full
Oct 26
Last Quarter
Nov 3
New

Hourly Weather History & Observations

Time (CDT) Temp. Heat Index Dew Point Humidity Pressure Visibility Wind Dir Wind Speed Gust Speed Precip Events Conditions
12:53 AM 72.0 °F - 71.1 °F 97% 29.83 in 8.0 mi Calm Calm - 0.05 in   Mostly Cloudy
1:32 AM 71.6 °F - 69.8 °F 94% 29.83 in 3.0 mi Calm Calm - N/A   Overcast
1:53 AM 72.0 °F - 71.1 °F 97% 29.81 in 2.0 mi Variable 3.5 mph - 0.05 in Rain Heavy Rain
2:00 AM 71.6 °F - 69.8 °F 94% 29.82 in 1.5 mi North 4.6 mph - 0.03 in Rain Heavy Rain
2:04 AM 71.6 °F - 71.6 °F 100% 29.82 in 3.0 mi Calm Calm - 0.03 in Rain Light Rain
2:53 AM 72.0 °F - 71.1 °F 97% 29.80 in 2.5 mi NE 3.5 mph - 0.08 in Rain Rain
3:02 AM 71.6 °F - 71.6 °F 100% 29.80 in 5.0 mi Calm Calm - 0.00 in Rain Light Rain
3:23 AM 71.6 °F - 71.6 °F 100% 29.80 in 5.0 mi Calm Calm - 0.00 in   Overcast
3:28 AM 71.6 °F - 71.6 °F 100% 29.80 in 5.0 mi Calm Calm - 0.00 in   Overcast
3:53 AM 71.1 °F - 69.1 °F 93% 29.79 in 10.0 mi NNW 13.8 mph - 0.00 in   Overcast
4:00 AM 69.8 °F - 68.0 °F 94% 29.81 in 10.0 mi NNW 11.5 mph - N/A   Overcast
4:07 AM 69.8 °F - 66.2 °F 88% 29.81 in 9.0 mi NNW 9.2 mph - 0.00 in Rain Light Rain
4:53 AM 66.0 °F - 64.0 °F 93% 29.83 in 10.0 mi North 10.4 mph - 0.01 in   Overcast
5:50 AM 64.4 °F - 62.6 °F 94% 29.85 in 4.0 mi North 5.8 mph - 0.01 in Rain , Thunderstorm Light Thunderstorms and Rain
5:53 AM 64.0 °F - 63.0 °F 96% 29.85 in 5.0 mi North 6.9 mph - 0.01 in Rain , Thunderstorm Light Thunderstorms and Rain
6:05 AM 64.4 °F - 62.6 °F 94% 29.85 in 9.0 mi North 6.9 mph - 0.00 in Rain Light Rain
6:53 AM 64.0 °F - 62.1 °F 93% 29.85 in 9.0 mi North 6.9 mph - 0.01 in   Overcast
6:59 AM 64.4 °F - 62.6 °F 94% 29.86 in 10.0 mi North 8.1 mph - N/A   Overcast
7:53 AM 64.0 °F - 62.1 °F 93% 29.86 in 10.0 mi North 5.8 mph - N/A   Overcast
8:53 AM 64.9 °F - 61.0 °F 87% 29.87 in 10.0 mi NNE 8.1 mph - N/A   Overcast
9:53 AM 66.0 °F - 62.1 °F 87% 29.88 in 10.0 mi North 6.9 mph - N/A   Overcast
10:53 AM 70.0 °F - 63.0 °F 78% 29.87 in 10.0 mi Variable 4.6 mph - N/A   Overcast
11:16 AM 71.6 °F - 62.6 °F 73% 29.87 in 10.0 mi Variable 5.8 mph - N/A   Overcast
11:53 AM 75.9 °F - 64.9 °F 69% 29.86 in 10.0 mi North 6.9 mph - N/A   Scattered Clouds
12:00 PM 75.2 °F - 64.4 °F 69% 29.87 in 10.0 mi NNE 6.9 mph - N/A   Mostly Cloudy
12:53 PM 78.1 °F - 64.9 °F 64% 29.85 in 10.0 mi North 8.1 mph - N/A   Overcast
1:53 PM 77.0 °F - 64.0 °F 64% 29.83 in 10.0 mi NNW 9.2 mph - N/A   Overcast
2:14 PM 78.8 °F - 64.4 °F 61% 29.83 in 10.0 mi NNE 6.9 mph - N/A   Overcast
2:53 PM 78.1 °F - 63.0 °F 60% 29.82 in 10.0 mi North 8.1 mph - N/A   Overcast
3:53 PM 80.1 °F 81.5 °F 63.0 °F 56% 29.82 in 10.0 mi NNE 9.2 mph - N/A   Overcast
4:53 PM 75.9 °F - 60.1 °F 58% 29.84 in 10.0 mi NNW 9.2 mph 16.1 mph N/A   Mostly Cloudy
5:53 PM 73.0 °F - 60.1 °F 64% 29.86 in 10.0 mi North 8.1 mph - N/A   Mostly Cloudy
6:53 PM 69.1 °F - 59.0 °F 70% 29.88 in 10.0 mi North 5.8 mph - N/A   Clear
7:53 PM 66.0 °F - 57.9 °F 75% 29.91 in 10.0 mi NNW 4.6 mph - N/A   Clear
8:53 PM 66.0 °F - 57.0 °F 73% 29.93 in 10.0 mi North 6.9 mph - N/A   Partly Cloudy
9:53 PM 64.9 °F - 55.9 °F 73% 29.94 in 10.0 mi North 3.5 mph - N/A   Mostly Cloudy
10:53 PM 63.0 °F - 55.9 °F 78% 29.95 in 10.0 mi Calm Calm - N/A   Clear
11:53 PM 64.0 °F - 55.0 °F 73% 29.93 in 10.0 mi North 6.9 mph - N/A   Overcast